Evansville, IN

10:27 AM CDT on April 21, 2018 (GMT -0500)
Evansville Regional

Weather History for KEVV - September, 2014

Change the Weather History Date:

Monday, September 29, 2014

  Actual Average Record
Temperature  
Mean Temperature 74 °F 64 °F  
Max Temperature 87 °F 76 °F 99 °F (1953)
Min Temperature 60 °F 51 °F 31 °F (1942)
Degree Days  
Heating Degree Days 0 4  
Month to date heating degree days 36 41  
Since 1 July heating degree days 36 42  
Cooling Degree Days 9 3  
Month to date cooling degree days 156 165  
Year to date cooling degree days 1436 1364  
Growing Degree Days 24 (Base 50)    
Moisture  
Dew Point 57 °F    
Average Humidity 62    
Maximum Humidity 97    
Minimum Humidity 26    
Precipitation  
Precipitation 0.00 in 0.10 in 1.64 in (1927)
Month to date precipitation 2.55 2.94  
Year to date precipitation 36.73 33.86  
Snow  
Snow 0.00 in 0.00 in 0.00 in (2002)
Month to date snowfall 0.0 0.0  
Since 1 July snowfall 0.0 0.0  
Since 1 September snowfall 0.0 0.0  
Snow Depth 0.00 in    
Sea Level Pressure  
Sea Level Pressure 29.99 in    
Wind  
Wind Speed 2 mph (NNW)    
Max Wind Speed 12 mph    
Max Gust Speed 16 mph    
Visibility 8 miles    
Events      
T = Trace of Precipitation, MM = Missing Value Source: NWS Daily Summary

Daily Weather History Graph

Daily Weather History Graph

Search for Another Location

Airport or City:

Astronomy

Sep. 29, 2014 Rise Set
Actual Time 6:44 AM CDT 6:36 PM CDT
Civil Twilight 6:17 AM CDT 7:02 PM CDT
Nautical Twilight 5:47 AM CDT 7:32 PM CDT
Astronomical Twilight 5:16 AM CDT 8:03 PM CDT
Moon 11:51 AM CDT (9/29) 10:14 PM CDT (9/29)
Length of Visible Light 12h 44m
Length of Day
11h 52m
Waxing Crescent, 28% of the Moon is Illuminated
Sep 29
Waxing Crescent
Oct 1
First Quarter
Oct 8
Full
Oct 15
Last Quarter
Oct 23
New

Hourly Weather History & Observations

Time (CDT) Temp. Heat Index Dew Point Humidity Pressure Visibility Wind Dir Wind Speed Gust Speed Precip Events Conditions
12:54 AM 64.0 °F - 61.0 °F 90% 30.02 in 9.0 mi NNE 4.6 mph - N/A   Clear
1:54 AM 64.9 °F - 62.1 °F 90% 30.02 in 9.0 mi Calm Calm - N/A   Clear
2:54 AM 62.6 °F - 60.8 °F 94% 30.03 in 7.0 mi Calm Calm - N/A   Clear
3:54 AM 63.0 °F - 61.0 °F 93% 30.01 in 5.0 mi Calm Calm - N/A   Clear
4:54 AM 63.0 °F - 60.1 °F 90% 30.01 in 6.0 mi Calm Calm - N/A   Clear
5:54 AM 61.0 °F - 59.0 °F 93% 30.02 in 4.0 mi Calm Calm - N/A   Clear
6:54 AM 60.1 °F - 57.9 °F 93% 30.03 in 2.5 mi North 3.5 mph - N/A   Partly Cloudy
7:22 AM 60.1 °F - 59.0 °F 96% 30.04 in 3.0 mi Calm Calm - N/A   Clear
7:54 AM 63.0 °F - 61.0 °F 93% 30.04 in 3.0 mi Calm Calm - N/A   Clear
8:54 AM 69.1 °F - 63.0 °F 81% 30.04 in 5.0 mi Calm Calm - N/A   Haze
9:54 AM 75.9 °F - 63.0 °F 64% 30.04 in 6.0 mi NNE 3.5 mph - N/A   Haze
10:54 AM 81.0 °F 81.0 °F 57.0 °F 44% 30.03 in 10.0 mi NNW 6.9 mph - N/A   Clear
11:54 AM 82.9 °F 81.8 °F 53.1 °F 36% 30.02 in 10.0 mi Calm Calm - N/A   Clear
12:54 PM 86.0 °F - 51.1 °F 30% 30.00 in 10.0 mi North 6.9 mph - N/A   Clear
1:54 PM 84.9 °F - 50.0 °F 30% 29.97 in 10.0 mi WNW 5.8 mph - N/A   Clear
2:54 PM 84.9 °F - 48.9 °F 29% 29.95 in 10.0 mi West 8.1 mph - N/A   Clear
3:54 PM 87.1 °F - 48.9 °F 27% 29.94 in 10.0 mi North 5.8 mph - N/A   Clear
4:54 PM 84.9 °F - 50.0 °F 30% 29.93 in 10.0 mi Variable 5.8 mph - N/A   Clear
5:54 PM 82.9 °F 81.8 °F 53.1 °F 36% 29.93 in 10.0 mi NNW 3.5 mph - N/A   Clear
6:54 PM 75.0 °F - 55.9 °F 51% 29.93 in 10.0 mi North 3.5 mph - N/A   Clear
7:54 PM 71.1 °F - 57.0 °F 61% 29.94 in 10.0 mi Calm Calm - N/A   Clear
8:54 PM 69.1 °F - 57.9 °F 68% 29.95 in 10.0 mi Calm Calm - N/A   Clear
9:54 PM 64.9 °F - 57.9 °F 78% 29.95 in 10.0 mi Calm Calm - N/A   Clear
10:54 PM 64.0 °F - 57.0 °F 78% 29.95 in 10.0 mi Calm Calm - N/A   Clear
11:54 PM 62.1 °F - 57.0 °F 84% 29.95 in 10.0 mi Calm Calm - N/A   Clear